Viciebsk, Belarus

11:04 AM +03 on March 27, 2017 (GMT +0300)
Vitebsk

Weather History for UMII - February, 2014

Change the Weather History Date:

Friday, February 7, 2014

  Actual Average Record
Temperature  
Mean Temperature 27 °F -  
Max Temperature 33 °F 28 °F - ()
Min Temperature 22 °F 15 °F - ()
Degree Days  
Heating Degree Days 38    
Moisture  
Dew Point 26 °F    
Average Humidity 89    
Maximum Humidity 93    
Minimum Humidity 80    
Precipitation  
Precipitation 0.00 in 0.04 in - ()
Sea Level Pressure  
Sea Level Pressure 29.82 in    
Wind  
Wind Speed 5 mph ()    
Max Wind Speed 9 mph    
Max Gust Speed -    
Visibility 3.2 miles    
Events Snow    
T = Trace of Precipitation, MM = Missing Value Source: Averaged Metar Reports

Daily Weather History Graph

Daily Weather History Graph

Search for Another Location

Airport or City:

Trip Planner

Search our weather history database for the weather conditions in past years. The results will help you decide how hot, cold, wet, or windy it might be!

Date:

Astronomy

Feb. 07, 2014 Rise Set
Actual Time 8:39 AM +03 5:47 PM +03
Civil Twilight 8:00 AM +03 6:26 PM +03
Nautical Twilight 7:17 AM +03 7:10 PM +03
Astronomical Twilight 6:34 AM +03 7:52 PM +03
Moon 11:36 AM +03 (2/7) 2:42 AM +03 (2/7)
Length of Visible Light 10h 26m
Length of Day
9h 08m
First Quarter, 56% of the Moon is Illuminated
Feb 7
First Quarter
Feb 15
Full
Feb 22
Last Quarter
Mar 1
New
Mar 8
First Quarter

Hourly Weather History & Observations

Time (+03) Temp. Windchill Dew Point Humidity Pressure Visibility Wind Dir Wind Speed Gust Speed Precip Events Conditions
12:00 AM 26 °F - 23 °F 83% 29.87 in 6 mi SSW 4.5 mph - - Snow Light Snow
3:00 AM 26 °F - 22 °F 80% 29.85 in 6 mi South 4.5 mph - -   Partly Cloudy
6:00 AM 23 °F - 22 °F 92% 29.84 in 4 mi South 4.5 mph - -   Mist
8:00 AM 24.8 °F 17.1 °F 23.0 °F 93% 29.80 in 3.1 mi South 6.7 mph - N/A   Mostly Cloudy
9:00 AM 26 °F - 24 °F 87% 29.85 in 4 mi SSW 2.2 mph - - Snow Light Snow
9:00 AM 24.8 °F 19.2 °F 23.0 °F 93% 29.80 in 3.1 mi South 4.5 mph - N/A   Overcast
10:00 AM 26.6 °F 19.2 °F 24.8 °F 93% 29.80 in 3.1 mi SSW 6.7 mph - N/A   Overcast
10:35 AM 26.6 °F 19.2 °F 24.8 °F 93% 29.80 in 2.8 mi SSW 6.7 mph - N/A   Overcast
11:00 AM 26.6 °F 17.7 °F 24.8 °F 93% 29.80 in 2.2 mi SSW 8.9 mph - N/A   Overcast
11:35 AM 26.6 °F 19.2 °F 24.8 °F 93% 29.80 in 2.8 mi SSW 6.7 mph - N/A   Overcast
12:00 PM 29 °F - 27 °F 91% 29.86 in 3 mi SW 4.5 mph - - Snow Light Snow
12:00 PM 28.4 °F 19.9 °F 24.8 °F 86% 29.80 in - SSW 8.9 mph - N/A   Overcast
1:00 PM 28.4 °F 21.4 °F 24.8 °F 86% 29.80 in - SSW 6.7 mph - N/A   Overcast
1:10 PM 28.4 °F 21.4 °F 24.8 °F 86% 29.80 in - SSW 6.7 mph - N/A   Light Freezing Drizzle
1:30 PM 28.4 °F 21.4 °F 24.8 °F 86% 29.80 in 1.7 mi SSW 6.7 mph - N/A   Light Freezing Drizzle
2:00 PM 30.2 °F 23.5 °F 26.6 °F 86% 29.80 in - South 6.7 mph - N/A   Light Freezing Drizzle
3:00 PM 31 °F - 30 °F 93% 29.86 in 2 mi SSW 2.2 mph - -   Mist
3:00 PM 30.2 °F 23.5 °F 28.4 °F 93% 29.80 in 2.2 mi South 6.7 mph - N/A   Overcast
4:00 PM 30.2 °F 23.5 °F 28.4 °F 93% 29.80 in 2.2 mi South 6.7 mph - N/A   Overcast
5:00 PM 32.0 °F 27.6 °F 28.4 °F 87% 29.80 in - South 4.5 mph - N/A   Overcast
6:00 PM 32 °F - 31 °F 92% 29.87 in 4 mi SSE 2.2 mph - -   Mist
9:00 PM 33 °F - 31 °F 90% 29.86 in 2 mi SSE 4.5 mph - -   Mist